sat.trackr.live / text

‹ back to catalog

KUIPER-00408

NORAD 68924 · 2026-098F

PAYLOAD ACTIVE UNKNOWN

§ Identity

Operator
Country
US
Launch date
2026-04-30
Launch site
FRGUI
Launch vehicle
Mass (kg)
RCS (m²)

External: N2YO · Heavens-Above · Gunter

§ Orbital elements

Epoch: 2026-09-19T05:52:38.222112Z

Period
97.30 min
Inclination
51.9010°
Eccentricity
0.0000445
Mean motion
14.79932190 rev/d
Perigee alt
629.2 km
Apogee alt
629.9 km
Semi-major
7,007.7 km
B*
3.1957e-4
RAAN
357.1614°
Arg perigee
96.4855°
Mean anomaly
263.6158°
Rev number
2,148

§ Raw data

KUIPER-004081 68924U 26098F   26262.24488683  .00002216  00000+0  31957-3 0  99932 68924  51.9010 357.1614 0000445  96.4855 263.6158 14.79932190 21485

JSON: /api/v1/satellites/68924 · /tle

For live sub-satellite position, see the globe view (requires WebGL).

§ Visibility from observer

Set your observer location to see the next 7 days of passes ≥ 10°. The values pass through the URL so the page stays shareable.

No JS? Fill the form by hand. The geolocation button needs JavaScript.